Tracking 33068 objects as of 24-Jan-2026
HD Live streaming from Space Station
objects crossing your sky now

STARLINK-33700

Track STARLINK-33700 now!
10-day predictions
STARLINK-33700 is classified as:


NORAD ID: 63484
Int'l Code: 2025-070AA
Perigee: 489.4 km
Apogee: 490.8 km
Inclination: 43.0 °
Period: 94.3 minutes
Semi major axis: 6861 km
RCS: Unknown
Launch date: April 6, 2025
Source: United States (US)
Launch site: AIR FORCE EASTERN TEST RANGE (AFETR)
Your satellite tracking list
Your tracking list is empty




NASA's NSSDC Master Catalog

Two Line Element Set (TLE):
1 63484U 25070AA  26024.07082062  .00062030  00000-0  22426-2 0  9997
2 63484  43.0023 151.6704 0001042 317.7852  42.2920 15.27612632 46153
Source of the keplerian elements: AFSPC